Location: Oakhurst
(33.6448°N, 111.9543°W)
Time: 04:32:47
(UTC+00:00)

Envisat - Visible Passes

Search period start: 14 May 2021 00:00
Search period end: 24 May 2021 00:00
Orbit: 764 x 766 km, 98.1° (Epoch: 13 May)

Date Brightness Start Highest point End Pass type
(mag) Time Alt. Az. Time Alt. Az. Time Alt. Az.
15 May 6.1 11:34:08 10° ENE 11:35:40 11° E 11:37:11 10° ESE visible
17 May 5.6 11:57:23 10° NE 12:01:15 22° E 12:05:07 10° SE visible
20 May 5.7 11:46:31 10° NE 11:49:43 17° E 11:52:54 10° SE visible
23 May 5.9 11:36:02 10° ENE 11:38:09 12° E 11:40:16 10° ESE visible
